Weather in Tutura

Russia / Irkutsk Oblast     54°47′08″N   105°13′46″E
temp.,
°C
wind,
m/s
gust,
m/s
humid.,
%
clouds,
%
prec.,
mm/h
press.,
hPa
HPBL,
m
27 january, thu
thu2723:00−25ese1110092 0.0 10409
02:00−27ese1110062 0.0 10419
05:00−30se1110083 0.0 10429
08:00−31ese1110085 0.0 10439
11:00−24ene019890 0.0 104273
14:00−17nne118857 0.0 1038204
17:00−19nne11985 0.0 10399
20:00−26se1110059 0.0 10439
28 january, fri
fri2823:00−29ese1110089 0.0 10459
02:00−30ese11100100 0.0 10469
05:00−31ese11100100 0.0 10469
08:00−32ese11100100 0.0 10479
11:00−25ne01100100 0.0 104474
14:00−17n009074 0.0 1041196
17:00−20n01996 0.0 10409
20:00−27se1110070 0.0 10439
29 january, sat
sat2923:00−29se1110097 0.0 10449
02:00−30ese01100100 0.0 10449
05:00−31ese11100100 0.0 10449
08:00−32ese0110099 0.0 10459
11:00−25nnw009999 0.0 104277
14:00−18nw108961 0.0 1039191
17:00−20wnw009932 0.0 10399
20:00−27sse1110054 0.0 10429
30 january, sun
sun3023:00−29se1110069 0.0 10439
02:00−30se1110086 0.0 10449
05:00−31se1110099 0.0 10449
08:00−30ese1110099 0.1 104410
11:00−24ene0097100 0.0 104389
14:00−18nw009096 0.1 1039222
17:00−20n01998 0.0 10399
20:00−27se1110063 0.0 10419
31 january, mon
mon3123:00−29se1110095 0.0 10429
02:00−29se11100100 0.0 104210
05:00−27se11100100 0.0 104012
08:00−25se1199100 0.0 103816
11:00−20sw0094100 0.0 1037113
14:00−15n008787 0.0 1035255
17:00−16n119697 0.0 10349
20:00−21se00100100 0.0 10369